Regional Weather Roundup
Issued by NWS

Home | Current Version | Previous Version | Text Only | Print | Product List | Glossary On
Versions: 1 2 3 4 5 6 7 8 9 10 11 12 13 14 15 16 17 18 19 20 21 22 23 24 25 26 27 28 29 30 31 32 33 34 35 36 37 38 39 40 41 42 43 44 45 46 47 48 49 50
000
ASCA44 KEWX 011220
RWRMX

LATIN AMERICA AND CARIBBEAN REGIONAL WEATHER ROUNDUP
NATIONAL WEATHER SERVICE AUSTIN/SAN ANTONIO TX
600 AM CST SUN MAR 01 2015

NOTE: "FAIR" INDICATED FEW OR NO CLOUDS BELOW 12,000 FEET WITH NO
SIGNIFICANT WEATHER AND/OR OBSTRUCTIONS TO VISIBILITY.

BAJA CALIFORNIA

CITY           SKY/WX    TMP DP  RH WIND       PRES   REMARKS
TIJUANA        SHOWER    54  50  87 CALM      29.93F

NORTHWESTERN MEXICO

CITY           SKY/WX    TMP DP  RH WIND       PRES   REMARKS

NORTHEASTERN MEXICO

CITY           SKY/WX    TMP DP  RH WIND       PRES   REMARKS
CHIHUAHUA      PTCLDY    48  25  40 S8        30.10  WCI  45
MONTERREY      DRZL/FOG  46  45  93 CALM      30.14R VSB 1
REYNOSA        CLOUDY    45  43  93 NW6       30.16R FOG     WCI  41
TORREON        CLEAR     55  39  54 CALM      30.08
CD. VICTORIA   MOCLDY    50  45  81 N2        30.13S

WESTERN MEXICO

CITY           SKY/WX    TMP DP  RH WIND       PRES   REMARKS
AGUASCALIENTES CLEAR     45  27  49 N6        30.30  WCI  41
COLIMA         CLEAR     70  41  35 CALM      30.06
GUADALAJARA    CLEAR     46  34  61 SW2       30.22R
MAZATLAN       PTCLDY    55  52  88 N9        29.96S
P. VALLARTA    CLEAR     63  61  94 N7        29.96R
ZACATECAS      CLEAR     39  18  41 CALM      30.30

CENTRAL MEXICO

CITY           SKY/WX    TMP DP  RH WIND       PRES   REMARKS
MEXICO CITY    CLEAR     54  37  54 SW2       30.35R
MORELIA        CLEAR     43  34  70 CALM      30.28R
PUEBLA         CLEAR     41  36  81 N7        30.37  WCI  36
QUERETARO      CLEAR     43  36  75 CALM      30.34R
S. LUIS POTOSI PTCLDY    41  39  93 CALM      30.29R FOG
TAMPICO        CLOUDY    61  59  94 N7        30.13
TOLUCA         CLEAR     37  32  81 CALM      30.42R

SOUTHERN MEXICO

CITY           SKY/WX    TMP DP  RH WIND       PRES   REMARKS
ACAPULCO       CLEAR     73  63  68 N8        29.95R
OAXACA         CLEAR     54  46  76 N5        30.31
VERACRUZ       CLOUDY    64  61  88 NW5       30.12

YUCATAN PENINSULA

CITY           SKY/WX    TMP DP  RH WIND       PRES   REMARKS
CAMPECHE       PTCLDY    72  72 100 CALM      30.08R
CANCUN         PTCLDY    77  73  88 E6        30.14R
CHETUMAL       PTCLDY    75  64  69 NE7       30.09
CD. DEL CARMEN MOCLDY    77  72  83 E8        30.07R
COZUMEL        PTCLDY    72  72 100 E3        30.13R
MERIDA         MOCLDY    72  70  94 E12       30.13R
TAPACHULA      CLEAR     75  68  78 CALM      29.95R
TUX. GUTIERREZ PTCLDY    57  55  94 CALM      30.09

CENTRAL AMERICA

CITY           SKY/WX    TMP DP  RH WIND       PRES   REMARKS
BELIZE CITY    PTCLDY    79  73  83 E10       30.07R
MANAGUA        MOSUNNY   72  66  83 CALM      29.92R

CARIBBEAN

CITY           SKY/WX    TMP DP  RH WIND       PRES   REMARKS
ARUBA          MOSUNNY   81  72  74 E17       30.00R
CURACAO        MOSUNNY   81  70  69 E14       30.03R
KINGSTON       PTCLDY    77  70  78 W6        30.06R
NASSAU         PTCLDY    75  70  83 E8        30.27R
SAN JUAN       MOSUNNY   77  72  83 E12       30.14R
SANTO DOMINGO  PTSUNNY   73  72  94 NE6       30.12R
ST. CROIX      PTSUNNY   77  68  73 E13G21    30.12
ST. KITTS      MOSUNNY   77  68  73 E20       30.12R
ST. MAARTEN    MOSUNNY   79  66  65 E18       30.12R

$$



USA.gov is the U.S. government's official web portal to all federal, state and local government web resources and services.